Stillwater, OK

4:52 AM CDT on July 27, 2017 (GMT -0500)
Stillwater Municipal

Weather History for KSWO - September, 2013

Change the Weather History Date:

Saturday, September 21, 2013

  Actual Average Record
Temperature  
Mean Temperature 65 °F -  
Max Temperature 86 °F 80 °F 96 °F (2012)
Min Temperature 46 °F 55 °F 44 °F (2000)
Growing Degree Days 15 (Base 50)    
Moisture  
Dew Point 50 °F    
Average Humidity 64    
Maximum Humidity 97    
Minimum Humidity 25    
Precipitation  
Precipitation 0.00 in - - ()
Sea Level Pressure  
Sea Level Pressure 29.97 in    
Wind  
Wind Speed 2 mph (ESE)    
Max Wind Speed 9 mph    
Max Gust Speed -    
Visibility 10 miles    
Events      
Averages and records for this station are not official NWS values.
T = Trace of Precipitation, MM = Missing Value Source: NWS Daily Summary

Daily Weather History Graph

Daily Weather History Graph

Search for Another Location

Airport or City:

Trip Planner

Search our weather history database for the weather conditions in past years. The results will help you decide how hot, cold, wet, or windy it might be!

Date:

Astronomy

Sep. 21, 2013 Rise Set
Actual Time 7:15 AM CDT 7:26 PM CDT
Civil Twilight 6:50 AM CDT 7:51 PM CDT
Nautical Twilight 6:20 AM CDT 8:21 PM CDT
Astronomical Twilight 5:49 AM CDT 8:52 PM CDT
Moon 8:44 PM CDT (9/21) 9:30 AM CDT (9/21)
Length of Visible Light 13h 01m
Length of Day
12h 10m
Waning Gibbous, 94% of the Moon is Illuminated
Sep 21
Waning Gibbous
Sep 26
Last Quarter
Oct 4
New
Oct 11
First Quarter
Oct 18
Full

Hourly Weather History & Observations

Time (CDT) Temp. Dew Point Humidity Pressure Visibility Wind Dir Wind Speed Gust Speed Precip Events Conditions
12:53 AM 52.0 °F 48.9 °F 89% 30.01 in 10.0 mi Calm Calm - N/A   Smoke
1:53 AM 50.0 °F 48.9 °F 96% 30.01 in 10.0 mi Calm Calm - N/A   Smoke
2:53 AM 50.0 °F 48.9 °F 96% 30.01 in 10.0 mi Calm Calm - N/A   Smoke
3:53 AM 46.9 °F 46.0 °F 97% 30.00 in 9.0 mi NW 3.5 mph - N/A   Smoke
4:53 AM 46.9 °F 46.0 °F 97% 30.01 in 10.0 mi Calm Calm - N/A   Smoke
5:53 AM 48.9 °F 46.0 °F 90% 30.01 in 5.0 mi Calm Calm - N/A   Clear
6:53 AM 48.0 °F 46.0 °F 93% 30.02 in 10.0 mi Calm Calm - N/A   Smoke
7:53 AM 51.1 °F 50.0 °F 96% 30.03 in 10.0 mi Calm Calm - N/A   Smoke
8:53 AM 62.1 °F 55.9 °F 80% 30.04 in 10.0 mi NE 3.5 mph - N/A   Smoke
9:53 AM 70.0 °F 53.1 °F 55% 30.03 in 10.0 mi Variable 3.5 mph - N/A   Smoke
10:53 AM 75.0 °F 51.1 °F 43% 30.04 in 10.0 mi SSE 5.8 mph - N/A   Clear
11:53 AM 77.0 °F 50.0 °F 39% 30.02 in 10.0 mi South 3.5 mph - N/A   Clear
12:53 PM 81.0 °F 48.9 °F 33% 30.01 in 10.0 mi SE 5.8 mph - N/A   Clear
1:53 PM 82.0 °F 48.9 °F 31% 29.98 in 10.0 mi East 3.5 mph - N/A   Clear
2:53 PM 82.9 °F 48.9 °F 31% 29.95 in 10.0 mi Variable 3.5 mph - N/A   Clear
3:53 PM 84.9 °F 45.0 °F 25% 29.93 in 10.0 mi East 9.2 mph - N/A   Clear
4:53 PM 84.9 °F 48.0 °F 28% 29.91 in 10.0 mi SSE 9.2 mph - N/A   Clear
5:53 PM 81.0 °F 48.0 °F 31% 29.90 in 10.0 mi ESE 5.8 mph - N/A   Clear
6:53 PM 77.0 °F 50.0 °F 39% 29.90 in 10.0 mi SE 9.2 mph - N/A   Clear
7:53 PM 70.0 °F 52.0 °F 53% 29.90 in 10.0 mi SE 5.8 mph - N/A   Clear
8:53 PM 66.9 °F 53.1 °F 61% 29.91 in 10.0 mi SE 5.8 mph - N/A   Clear
9:53 PM 62.1 °F 53.1 °F 72% 29.91 in 10.0 mi ESE 4.6 mph - N/A   Clear
10:53 PM 60.1 °F 53.1 °F 78% 29.91 in 10.0 mi ESE 5.8 mph - N/A   Clear
11:53 PM 53.1 °F 50.0 °F 89% 29.93 in 10.0 mi Calm Calm - N/A   Clear